Weather History for Wausau, WI

Change the Weather History Date:

Tuesday, February 11, 2014

  Actual Average Record
Temperature  
Mean Temperature -5 °F 18 °F  
Max Temperature 11 °F 27 °F 48 °F (1999)
Min Temperature -22 °F 9 °F -38 °F (1899)
Degree Days  
Heating Degree Days 70 47  
Month to date heating degree days 716 531  
Since 1 July heating degree days 6026 5381  
Cooling Degree Days 0 0  
Month to date cooling degree days 0 0  
Year to date cooling degree days 0 0  
Moisture  
Dew Point -12 °F    
Average Humidity 75    
Maximum Humidity 100    
Minimum Humidity 50    
Precipitation  
Precipitation 0.00 in 0.03 in 0.55 in (1999)
Month to date precipitation T 0.33  
Year to date precipitation 1.55 1.35  
Snow  
Snow 0.00 in 0.30 in 4.00 in (1965)
Month to date snowfall 0.1 3.9  
Since 1 July snowfall 52.1 39.6  
Snow Depth 19.00 in    
Sea Level Pressure  
Sea Level Pressure 30.42 in    
Wind  
Wind Speed 5 mph (South)    
Max Wind Speed 14 mph    
Max Gust Speed 18 mph    
Visibility 9 miles    
Events      
T = Trace of Precipitation, MM = Missing Value Source: NWS Daily Summary

Daily Weather History Graph

Daily Weather History Graph

Search for Another Location

Airport:

Trip Planner

Search our weather history database for the weather conditions in past years. The results will help you decide how hot, cold, wet, or windy it might be!

Date:

Astronomy

Feb. 11, 2014 Rise Set
Actual Time 7:05 AM CST 5:21 PM CST
Civil Twilight 6:34 AM CST 5:51 PM CST
Nautical Twilight 6:00 AM CST 6:25 PM CST
Astronomical Twilight 5:26 AM CST 7:00 PM CST
Moon 2:38 PM CST (2/11) 4:45 AM CST (2/11)
Length of Visible Light 11h 16m
Length of Day
10h 15m
Waxing Gibbous, 91% of the Moon is Illuminated
Feb 11
Waxing Gibbous
Feb 14
Full
Feb 22
Last Quarter
Mar 1
New
Mar 8
First Quarter

Hourly Weather History & Observations

Time (CST) Temp. Windchill Dew Point Humidity Pressure Visibility Wind Dir Wind Speed Gust Speed Precip Events Conditions
12:54 AM -13.0 °F -25.1 °F -18.0 °F 78% 30.50 in 10.0 mi West 4.6 mph - N/A   Clear
1:54 AM -13.0 °F - -17.0 °F 82% 30.50 in 10.0 mi Calm Calm - N/A   Clear
2:54 AM -14.1 °F - -18.0 °F 82% 30.50 in 10.0 mi Calm Calm - N/A   Clear
3:54 AM -17.0 °F - -20.0 °F 86% 30.51 in 10.0 mi Calm Calm - N/A   Clear
4:54 AM -18.0 °F - -22.0 °F 82% 30.51 in 10.0 mi Calm Calm - N/A   Clear
5:54 AM -18.9 °F - -24.0 °F 78% 30.53 in 7.0 mi Calm Calm - N/A   Clear
6:54 AM -20.9 °F - -27.0 °F 73% 30.53 in 7.0 mi Calm Calm - N/A   Clear
7:54 AM -20.0 °F -33.3 °F -25.1 °F 78% 30.52 in 6.0 mi East 4.6 mph - N/A   Haze
8:54 AM -16.1 °F - -17.0 °F 96% 30.52 in 6.0 mi Calm Calm - N/A   Clear
9:54 AM -9.0 °F - -14.1 °F 79% 30.51 in 5.0 mi Calm Calm - N/A   Haze
10:54 AM 1.0 °F - -8.0 °F 66% 30.49 in 8.0 mi Calm Calm - N/A   Clear
11:54 AM 5.0 °F -9.1 °F -8.0 °F 55% 30.47 in 10.0 mi South 9.2 mph - N/A   Clear
12:54 PM 7.0 °F -5.7 °F -5.1 °F 58% 30.44 in 10.0 mi South 8.1 mph - N/A   Clear
1:54 PM 9.0 °F -4.2 °F -4.0 °F 56% 30.40 in 10.0 mi South 9.2 mph - N/A   Clear
2:54 PM 9.0 °F -5.1 °F -4.0 °F 56% 30.38 in 10.0 mi South 10.4 mph - N/A   Clear
3:54 PM 10.9 °F -2.6 °F -5.1 °F 49% 30.36 in 10.0 mi South 10.4 mph - N/A   Clear
4:54 PM 9.0 °F -4.2 °F -6.0 °F 51% 30.35 in 10.0 mi South 9.2 mph - N/A   Clear
5:54 PM 7.0 °F -4.5 °F -6.0 °F 55% 30.34 in 10.0 mi SSE 6.9 mph - N/A   Clear
6:54 PM 6.1 °F -5.6 °F -6.0 °F 58% 30.32 in 10.0 mi SSE 6.9 mph - N/A   Clear
7:54 PM 5.0 °F -9.1 °F -6.0 °F 61% 30.30 in 10.0 mi South 9.2 mph - N/A   Clear
8:54 PM 5.0 °F -9.1 °F -6.0 °F 61% 30.28 in 10.0 mi South 9.2 mph - N/A   Clear
9:54 PM 5.0 °F -9.1 °F -5.1 °F 63% 30.27 in 10.0 mi South 9.2 mph - N/A   Clear
10:54 PM 5.0 °F -11.6 °F -5.1 °F 63% 30.25 in 10.0 mi South 12.7 mph - N/A   Clear
11:54 PM 3.9 °F -11.3 °F -5.1 °F 66% 30.25 in 10.0 mi South 10.4 mph - N/A   Partly Cloudy